Tracking 30970 objects as of 3-Jul-2025
HD Live streaming from Space Station
objects crossing your sky now

STARLINK-33600

Track STARLINK-33600 now!
10-day predictions
STARLINK-33600 is classified as:


NORAD ID: 62772
Int'l Code: 2025-015Q
Perigee: 481.6 km
Apogee: 483.2 km
Inclination: 53.2 °
Period: 94.1 minutes
Semi major axis: 6853 km
RCS: Unknown
Launch date: January 21, 2025
Source: United States (US)
Launch site: AIR FORCE WESTERN TEST RANGE (AFWTR)
Your satellite tracking list
JILIN-01 GAOFEN 3D 5
Track 1 satellite(s)




NASA's NSSDC Master Catalog

Two Line Element Set (TLE):
1 62772U 25015Q   25183.89622471  .00013366  00000-0  46260-3 0  9995
2 62772  53.1590  42.9357 0001164  88.3926 271.7208 15.30198674 26231
Source of the keplerian elements: AFSPC